RH
80 100 100 100 100 90 98 100 100 100 100 87 90 95 99 98 99 100 98 91 91 69 56 76 51 44 28 10 10 9 10 10 10 9 9 10 10 11 11 12 13 14 14 14
100 100 97 100 100 100 100 100 100 90 92 98 90 96 100 100 100 98 88 76 75 62 59 70 35 29 23 10 9 9 10 10 9 9 9 9 9 9 10 10 10 12 12 12
82 88 79 97 100 100 100 100 84 95 83 84 96 100 99 100 98 88 80 80 58 60 67 65 23 19 15 10 9 9 10 10 9 10 10 10 10 10 10 10 9 10 10 11
88 82 87 100 83 88 94 84 74 75 77 99 100 100 97 89 78 72 73 60 62 64 71 67 14 14 12 9 9 10 10 10 10 10 11 11 10 10 10 11 10 9 9 10
95 85 97 90 87 100 82 72 75 90 100 100 98 91 81 78 73 76 85 62 66 74 63 40 11 12 10 9 9 10 10 11 10 10 10 10 10 10 10 9 9 10 10 10
100 86 82 96 99 72 71 80 88 95 96 100 90 83 89 80 86 88 69 68 66 68 40 13 10 11 9 9 9 10 10 12 10 10 10 10 9 10 9 9 9 9 9 10
97 85 82 79 75 73 78 79 91 92 94 89 92 93 81 94 75 80 74 72 72 55 19 10 10 10 10 9 9 9 11 11 10 10 10 10 9 10 9 10 10 10 11 11
100 91 76 78 74 67 74 82 94 98 100 99 92 78 85 82 73 64 70 66 57 24 10 8 9 10 10 9 9 10 11 11 10 10 10 11 11 11 12 12 12 12 12 13
99 97 98 88 92 96 96 100 100 100 100 96 99 85 88 64 69 68 64 53 28 14 10 8 8 9 10 9 9 10 11 11 10 11 12 12 12 13 13 13 13 13 13 13
91 100 98 94 97 82 96 100 100 99 92 100 100 84 89 73 65 56 55 45 15 11 9 9 9 8 9 9 9 10 11 11 12 12 12 13 13 14 14 14 13 13 13 14
98 96 91 92 92 100 100 100 99 92 99 98 100 83 72 69 58 50 34 20 12 9 10 9 9 8 9 9 10 11 10 12 12 12 12 13 14 14 14 14 14 14 14 16
85 89 90 99 100 100 100 95 99 100 99 100 82 82 73 65 46 32 16 11 9 9 10 9 8 8 9 9 11 11 11 13 13 12 13 14 14 15 14 14 15 15 15 18
96 100 100 100 100 100 100 100 100 100 99 88 86 74 60 22 25 14 11 9 9 10 9 9 8 8 9 10 11 11 12 13 13 13 13 15 16 17 16 16 17 16 16 21
100 100 100 100 100 98 100 100 100 97 81 73 72 62 20 16 14 10 9 9 9 9 8 8 8 8 9 11 11 12 13 13 13 14 14 16 18 18 18 18 18 18 18 24
100 100 100 100 100 100 100 100 96 89 77 75 63 23 14 12 10 8 9 8 8 8 8 8 8 8 10 11 13 12 12 13 14 14 14 16 18 18 18 18 20 19 20 26
100 100 100 100 100 100 100 79 84 76 66 60 23 13 12 10 8 9 9 8 8 8 8 8 8 10 11 12 14 13 12 13 14 14 15 18 18 18 17 18 21 21 21 28
100 100 100 100 100 100 97 89 92 73 62 23 12 10 10 8 9 9 8 7 6 8 8 8 10 11 11 12 13 12 13 13 15 15 16 19 18 17 16 18 21 22 24 29
100 100 100 100 100 99 91 81 66 41 21 11 10 10 8 9 9 9 8 7 6 7 8 9 11 12 12 12 13 12 13 14 15 16 18 19 19 17 14 18 21 23 27 32
100 100 100 98 96 83 72 62 32 12 10 11 10 8 9 10 9 8 7 8 8 8 9 10 11 12 11 12 13 13 14 15 16 17 19 19 19 17 13 16 22 25 31 36
100 94 95 95 76 59 55 29 12 10 10 10 9 10 10 9 8 7 8 8 9 10 11 10 10 11 11 12 12 12 13 14 15 17 18 19 19 17 13 16 22 28 37 43
98 91 74 53 46 35 14 12 10 11 10 9 10 10 10 8 8 8 8 9 10 10 10 11 11 10 9 9 9 10 11 13 15 16 18 19 19 17 14 16 24 34 44 48
61 44 26 33 14 11 12 12 11 10 10 10 10 10 9 8 8 9 10 11 12 11 10 10 8 6 5 5 5 5 6 9 12 15 17 18 18 18 14 16 27 41 53 57
17 16 13 12 12 12 12 10 9 11 11 10 10 8 8 9 10 10 10 10 11 12 11 8 5 5 5 4 4 5 5 7 8 10 13 15 17 18 14 17 31 49 62 68
11 12 12 12 12 11 10 10 12 11 10 10 9 8 9 10 12 13 13 12 12 10 7 5 5 5 5 5 5 6 6 6 6 8 9 12 16 17 15 19 34 52 64 79
12 12 11 11 11 10 12 13 12 11 10 9 9 9 10 12 12 12 13 12 11 7 5 5 5 6 5 6 6 7 7 7 7 8 9 12 16 16 16 21 35 53 67 82
12 11 11 11 12 13 13 11 11 10 10 10 10 12 13 13 13 14 13 10 7 6 6 6 6 6 6 7 8 8 8 8 8 9 10 12 14 16 17 23 37 56 72 84
11 11 12 13 13 12 11 11 10 10 10 11 12 14 13 13 14 14 10 7 7 7 6 6 7 7 8 8 8 8 9 9 9 10 11 12 14 16 18 24 36 53 73 84
Wind_Speed
61 64 67 72 79 85 87 91 92 94 93 95 97 100 103 107 113 117 120 125 131 131 130 128 109 91 78 70 63 58 55 53 50 49 49 50 52 53 55 55 56 58 59 60
58 66 71 75 81 86 89 92 91 92 93 96 101 105 109 112 116 122 125 128 132 132 130 126 103 92 79 72 65 59 54 51 50 49 49 50 50 51 52 53 54 55 56 57
63 69 74 76 81 84 86 90 95 94 96 100 104 109 113 117 122 124 129 134 136 131 126 122 101 91 79 71 66 60 55 52 51 49 48 48 48 49 49 50 52 53 54 54
70 76 78 77 80 83 86 91 94 97 101 104 108 113 117 120 125 130 134 138 136 131 117 108 97 88 77 67 63 58 56 53 50 47 44 42 41 42 44 46 49 50 49 50
80 78 75 80 84 86 91 94 99 102 105 108 112 115 120 127 130 137 140 142 135 118 108 101 95 83 73 65 60 56 55 54 48 42 41 39 37 36 38 40 40 41 42 44
84 83 83 83 86 93 95 97 101 104 108 113 116 119 123 132 133 140 144 142 127 116 103 98 90 79 70 63 58 54 52 49 44 39 38 37 35 34 35 35 35 34 35 36
84 84 82 87 92 95 100 103 105 109 113 118 123 128 130 135 139 143 144 132 123 111 103 95 82 73 67 61 56 52 50 46 41 36 36 35 33 33 33 32 32 33 34 35
85 89 91 93 96 101 104 107 112 116 122 126 131 134 138 141 145 146 144 126 115 108 101 89 77 69 63 58 54 50 46 42 39 36 34 33 31 31 30 30 32 31 29 29
91 93 96 98 103 109 112 113 116 121 126 130 135 138 143 146 150 149 137 120 109 104 98 83 73 63 59 54 52 48 42 38 36 34 33 32 28 26 26 26 26 26 25 25
91 97 101 105 110 113 114 118 123 127 132 137 142 145 151 154 153 144 124 112 105 100 90 78 69 60 53 51 49 44 39 36 34 32 30 28 24 21 22 22 22 22 22 22
97 103 106 110 112 116 120 124 130 135 141 144 147 151 154 157 146 127 112 106 102 93 83 73 65 58 52 49 47 42 35 35 33 29 27 24 20 20 20 19 19 18 17 18
105 108 112 114 118 122 127 131 136 141 148 149 154 156 154 149 128 115 106 103 96 85 77 69 62 54 49 46 42 39 34 31 29 25 23 21 19 19 19 18 17 16 15 15
111 114 116 120 124 130 134 137 142 146 152 156 156 157 142 130 115 107 103 98 86 77 72 65 57 51 47 44 39 35 32 28 24 22 19 18 18 18 18 17 16 14 13 14
115 118 121 125 130 133 136 142 146 152 154 157 155 142 129 119 108 104 99 87 79 73 67 60 53 47 46 42 37 33 29 24 21 20 18 17 17 18 17 17 16 14 13 16
119 123 126 130 134 137 140 146 151 157 155 147 140 128 117 111 105 100 87 81 75 67 61 56 50 46 43 39 36 32 26 21 20 18 17 17 17 18 18 17 17 15 15 18
126 130 132 135 137 140 145 149 156 148 144 138 127 118 111 106 102 91 83 77 69 62 57 52 49 45 39 36 33 30 25 20 20 18 17 17 17 18 19 19 18 16 16 20
133 134 136 140 144 147 153 155 152 141 130 122 116 110 107 103 93 86 80 72 63 54 50 49 48 45 40 35 30 28 25 21 19 19 18 17 18 18 19 20 20 18 19 24
137 142 144 145 151 155 153 152 139 128 122 116 111 107 104 92 87 82 75 68 60 53 49 45 44 43 39 34 30 27 25 22 20 19 18 18 18 18 20 22 22 20 22 26
143 147 151 154 153 146 142 136 124 116 114 109 106 102 92 86 82 77 68 61 57 56 51 46 39 39 38 34 32 28 25 23 21 20 19 19 19 19 21 24 25 23 25 29
150 149 148 146 140 133 125 118 115 109 106 106 101 91 86 80 75 70 61 57 56 54 51 48 41 38 36 33 32 30 27 25 23 22 21 22 21 20 22 26 28 26 29 32
139 135 132 130 125 118 111 108 106 103 104 98 89 84 80 75 66 63 62 58 54 51 47 46 44 40 36 32 30 29 27 26 25 25 24 24 24 23 24 29 31 30 32 34
126 123 121 115 111 109 105 103 102 102 94 87 82 78 75 68 61 58 58 57 54 52 48 45 42 39 34 30 27 25 25 25 25 26 26 27 27 26 27 32 35 35 36 37
115 112 109 109 105 102 102 101 98 90 85 81 77 72 65 63 62 61 55 51 49 49 48 44 39 34 30 27 23 21 21 22 23 25 27 29 29 28 30 35 38 39 40 40
108 106 103 101 99 100 98 92 88 84 79 76 72 66 61 57 56 56 55 53 51 48 45 40 36 32 28 25 22 20 19 20 21 23 26 29 30 30 33 38 42 42 43 44
102 99 97 97 96 92 87 84 80 77 74 69 64 62 60 58 56 52 51 50 49 46 42 37 33 29 26 23 21 19 18 19 20 21 25 29 31 33 36 41 44 45 46 47
96 95 94 91 87 83 80 77 74 71 66 63 61 59 57 55 54 54 53 50 47 43 39 35 31 27 25 23 21 18 18 17 18 21 25 29 32 35 39 43 47 48 48 49
91 88 86 82 79 76 74 72 69 64 62 61 58 56 54 54 54 53 51 48 44 40 36 32 29 26 23 21 20 17 17 17 18 21 25 28 33 37 41 45 48 50 51 53
Wind_Direction
304 307 310 311 311 314 318 320 320 320 322 325 327 329 328 329 330 329 330 330 328 332 333 336 334 332 329 325 320 316 310 303 297 289 283 276 271 267 263 259 256 255 253 252
306 305 307 310 311 316 319 318 319 320 322 325 326 327 327 328 329 328 329 329 328 330 332 334 333 330 328 324 320 316 312 305 298 291 285 279 273 268 263 260 258 255 253 252
303 302 307 309 313 315 317 316 317 320 323 324 325 325 327 328 327 328 328 327 329 332 332 333 331 330 326 323 320 317 314 308 301 293 286 280 274 271 267 263 260 256 254 252
303 305 311 312 312 314 314 313 316 319 322 324 324 326 325 325 325 326 327 328 330 331 332 333 330 329 325 322 319 317 315 310 304 296 291 284 277 272 268 264 262 260 257 254
303 309 309 308 311 312 313 315 318 320 320 320 322 323 323 324 326 326 326 328 330 331 332 332 330 328 324 321 318 317 316 312 304 299 294 288 282 275 270 267 265 263 260 257
304 306 309 309 311 312 313 316 317 317 318 319 321 322 322 322 324 325 327 329 329 330 331 332 329 326 323 320 317 317 316 309 303 300 293 289 284 279 274 271 267 264 260 254
303 306 308 310 311 313 314 315 316 317 317 319 320 320 322 323 322 325 327 327 329 330 331 331 327 325 322 319 316 318 315 308 304 299 293 289 285 280 277 274 270 263 258 256
302 306 308 310 310 312 314 315 316 317 318 319 320 320 320 321 323 324 326 325 329 330 329 329 326 324 321 317 315 317 314 307 304 301 296 291 287 283 280 273 267 264 260 256
303 306 306 308 310 313 313 313 315 316 317 318 318 318 319 321 322 324 324 326 328 328 327 326 324 323 320 316 316 317 313 307 302 298 295 292 290 284 273 266 262 259 258 253
303 302 306 308 309 311 312 314 315 315 316 317 318 318 319 320 322 323 324 326 328 328 326 324 323 321 318 315 316 316 311 306 301 299 295 291 290 277 267 261 260 258 257 253
301 303 306 307 309 311 312 313 314 316 316 317 317 317 320 320 322 323 326 326 327 326 324 323 322 320 318 316 316 314 310 305 301 298 294 289 284 272 264 260 260 260 256 246
304 305 306 308 309 311 312 313 314 314 314 314 315 316 318 319 321 324 326 326 326 325 323 321 321 318 316 315 314 311 308 302 297 294 290 286 279 269 264 260 259 257 251 235
303 305 306 306 308 309 311 312 313 313 313 313 315 317 319 320 322 324 326 325 325 323 321 319 318 316 315 314 313 309 306 299 293 290 285 280 273 266 263 260 255 252 243 222
302 303 305 306 308 309 310 311 312 311 311 312 314 317 319 321 323 324 324 324 323 322 320 318 316 315 314 313 310 306 303 297 290 287 284 276 266 261 258 254 246 241 231 214
302 303 304 306 307 308 309 309 310 310 311 312 315 317 320 321 323 323 324 322 322 321 318 315 314 315 313 311 307 303 299 293 288 283 281 272 263 258 253 247 240 232 221 206
302 303 305 305 305 306 307 309 309 311 311 313 315 317 319 321 322 322 323 322 322 319 317 316 315 314 311 307 301 297 295 290 285 281 276 268 262 258 249 240 233 226 214 199
302 303 303 304 305 304 305 306 309 309 312 313 316 318 320 320 321 321 322 320 319 317 315 316 313 311 309 304 298 293 289 285 279 275 271 264 260 257 244 233 227 220 204 195
301 301 302 302 301 302 304 306 307 310 312 313 316 318 317 320 321 321 320 319 318 317 318 316 311 307 304 301 296 290 286 282 275 269 264 260 257 254 240 227 221 215 200 195
298 300 299 299 301 302 303 304 307 311 313 315 315 316 317 321 320 319 318 318 318 318 317 313 310 303 300 298 292 287 282 277 269 264 257 254 253 249 236 222 216 210 200 195
294 297 298 299 299 301 302 302 308 312 314 314 314 316 319 319 318 316 317 318 318 316 315 312 311 304 299 293 286 281 275 270 263 257 252 249 249 244 231 217 211 206 200 196
295 296 297 297 299 301 304 307 310 312 312 312 314 317 317 317 317 316 317 318 317 315 313 311 310 307 301 294 286 280 273 265 257 251 248 245 243 239 226 214 207 204 200 198
293 293 298 300 303 305 307 308 310 310 310 312 316 316 316 316 316 316 316 315 315 314 314 313 311 308 303 298 290 281 271 261 253 247 244 240 236 232 221 210 204 202 201 198
295 296 299 301 303 305 307 308 309 309 311 314 315 315 316 316 316 315 314 314 313 314 315 315 313 309 305 300 295 285 272 260 251 245 239 234 230 226 216 206 202 202 201 199
297 298 299 301 304 305 306 307 307 310 312 313 313 314 314 314 313 313 314 315 316 316 315 314 311 309 305 302 297 287 275 262 252 241 233 227 223 220 212 204 202 203 202 200
297 297 299 302 303 304 305 306 308 310 311 311 312 313 314 314 313 313 313 314 315 315 314 313 310 307 305 300 291 280 268 259 249 237 227 222 219 215 209 203 202 204 203 202
297 299 300 299 301 303 304 307 308 309 309 310 311 312 312 312 313 314 315 316 315 313 312 311 309 307 304 299 289 277 265 254 241 231 224 219 215 212 208 204 203 204 204 204
296 296 297 300 301 303 305 306 306 307 309 309 309 310 310 311 313 314 315 314 313 311 310 309 308 305 300 292 283 270 259 248 236 227 221 216 213 211 209 206 204 205 205 206